Location: Haram ta Haram Freeway
(35.0583°N, 51.4202°E)
Time: 12:07:18
(UTC+04:30)

ISS - Pass Details

Date: 13 July 2022
Orbit: 412 x 420 km, 51.6° (Epoch: 15 August)

Event Time Altitude Azimuth Distance (km) Brightness Sun altitude
Rises 22:34:37 0° 260° (W) 2,336 0.4 -22.3°
Reaches altitude 10° 22:37:04 10° 278° (W) 1,478 -0.4 -22.6°
Maximum altitude 22:39:37 20° 328° (NNW) 1,016 -1.0 -22.9°
Drops below altitude 10° 22:42:10 10° 19° (NNE) 1,487 -0.6 -23.2°
Sets 22:44:39 0° 36° (NE) 2,354 0.3 -23.5°
